User: anonymous   Login
Location: Unspecified
(0.0000°N, 0.0000°E)
Time: 14:40:42
(UTC+00:00)
Language:

FENGYUN 1C DEB - Orbit

View from above orbital plane
View from above orbital plane
View from above satellite
View from above satellite

Ground track
Ground track

The orbit data is extracted from the following two-line orbital elements,

1 35169U 99025DMZ 24053.69654484  .00003401  00000-0  72499-3 0  9991
2 35169  99.1742 227.3430 0169914 292.5104  65.8178 14.51083548561941
Epoch (UTC): 22 February 2024 16:43:01
Eccentricity: 0.0169914
inclination: 99.1742°
perigee height: 601 km
apogee height: 843 km
right ascension of ascending node: 227.3430°
argument of perigee: 292.5104°
revolutions per day: 14.51083548
mean anomaly at epoch: 65.8178°
orbit number at epoch: 56194

The dashed part of the orbit path shows where the satellite is in the earth's shadow,  

DLR